Location: Rancho Del Sol Observatory
(38.7214°N, 120.6350°W)
Time: 06:11:47
(UTC-08:00)

A-11 Canister half - Pass Details

Date: 04 February 2020
Orbit: 1517 x 1683 km, 47.2° (Epoch: 22 February)

Event Time Altitude Azimuth Distance (km) Brightness Sun altitude
Rises 03:02:53 0° 300° (WNW) 4,690 - -47.3°
Reaches altitude 10° 03:05:57 10° 299° (WNW) 3,694 - -46.8°
Maximum altitude 03:15:11 73° 217° (SW) 1,572 - -45.1°
Exits shadow 03:20:21 30° 139° (SE) 2,454 10.1 -44.1°
Drops below altitude 10° 03:24:23 10° 134° (SE) 3,686 11.2 -43.3°
Sets 03:27:26 0° 133° (SE) 4,679 11.9 -42.8°
